When you browse on this site, cookies collect data to enhance your experience and personalize the content and advertising you see.
Visit our Privacy Policy to learn more. By continuing to use the site, you agree to this use of cookies and data.

Meteo pe oră la Dziaduszyce

Astăzi, 25 Septembrie, Vineri

Timp Temperatura Precipitaţii Vânt Presiune Umiditate
00:00 +16°C° 0 mm 1 m/s 736 mmHg 81%
01:00 +16°C° 0 mm 2 m/s 736 mmHg 83%
02:00 +16°C° 0 mm 2 m/s 735 mmHg 85%
03:00 +15°C° 0 mm 2 m/s 735 mmHg 87%
04:00 +15°C° 0 mm 2 m/s 734 mmHg 89%
05:00 +15°C° 0 mm 2 m/s 733 mmHg 87%
06:00 +15°C° 0 mm 2 m/s 733 mmHg 86%
07:00 +16°C° 0 mm 3 m/s 732 mmHg 84%
08:00 +18°C° 0 mm 3 m/s 732 mmHg 77%
09:00 +20°C° 0 mm 4 m/s 732 mmHg 69%
10:00 +22°C° 0 mm 4 m/s 731 mmHg 61%
11:00 +23°C° 0 mm 5 m/s 731 mmHg 57%
12:00 +24°C° 0 mm 7 m/s 731 mmHg 53%
13:00 +26°C° 0 mm 8 m/s 730 mmHg 48%
14:00 +24°C° 0.2 mm 7 m/s 730 mmHg 54%
15:00 +22°C° 0.2 mm 6 m/s 729 mmHg 59%
16:00 +21°C° 0.2 mm 5 m/s 729 mmHg 65%
17:00 +20°C° 0.4 mm 5 m/s 729 mmHg 68%
18:00 +19°C° 0.4 mm 4 m/s 729 mmHg 72%
19:00 +18°C° 0.4 mm 3 m/s 728 mmHg 76%
20:00 +18°C° 0 mm 3 m/s 728 mmHg 78%
21:00 +17°C° 0 mm 2 m/s 728 mmHg 80%
22:00 +17°C° 0 mm 2 m/s 728 mmHg 83%
23:00 +17°C° 0 mm 2 m/s 728 mmHg 85%

Mâine, 26 Septembrie, Sâmbătă

Timp Temperatura Precipitaţii Vânt Presiune Umiditate
00:00 +16°C° 0 mm 2 m/s 727 mmHg 87%
01:00 +16°C° 0 mm 2 m/s 726 mmHg 89%
02:00 +16°C° 0 mm 3 m/s 726 mmHg 89%
03:00 +15°C° 0 mm 4 m/s 725 mmHg 89%
04:00 +15°C° 0 mm 5 m/s 725 mmHg 89%
05:00 +16°C° 0 mm 6 m/s 724 mmHg 85%
06:00 +16°C° 0 mm 7 m/s 724 mmHg 82%
07:00 +17°C° 0 mm 7 m/s 723 mmHg 79%
08:00 +17°C° 0.8 mm 7 m/s 724 mmHg 81%
09:00 +17°C° 0.8 mm 6 m/s 724 mmHg 83%
10:00 +17°C° 0.8 mm 6 m/s 725 mmHg 85%
11:00 +17°C° 1.5 mm 5 m/s 725 mmHg 84%
12:00 +18°C° 1.5 mm 3 m/s 726 mmHg 82%
13:00 +18°C° 1.5 mm 2 m/s 726 mmHg 80%
14:00 +17°C° 1.1 mm 2 m/s 726 mmHg 83%
15:00 +16°C° 1.1 mm 3 m/s 727 mmHg 85%
16:00 +14°C° 1.1 mm 3 m/s 727 mmHg 88%
17:00 +14°C° 0.5 mm 3 m/s 727 mmHg 86%
18:00 +13°C° 0.5 mm 3 m/s 728 mmHg 84%
19:00 +12°C° 0.5 mm 3 m/s 728 mmHg 83%
20:00 +11°C° 0 mm 3 m/s 728 mmHg 81%
21:00 +11°C° 0 mm 3 m/s 729 mmHg 79%
22:00 +10°C° 0 mm 3 m/s 729 mmHg 77%
23:00 +10°C° 0 mm 4 m/s 729 mmHg 77%

Poimâine, 27 Septembrie, Duminică

Timp Temperatura Precipitaţii Vânt Presiune Umiditate
00:00 +8°C° 0 mm 4 m/s 729 mmHg 77%
01:00 +8°C° 0 mm 4 m/s 730 mmHg 77%
02:00 +8°C° 0 mm 4 m/s 730 mmHg 78%
03:00 +8°C° 0 mm 4 m/s 730 mmHg 78%
04:00 +7°C° 0 mm 4 m/s 730 mmHg 79%
05:00 +7°C° 0.1 mm 4 m/s 730 mmHg 78%
06:00 +7°C° 0.1 mm 4 m/s 730 mmHg 78%
07:00 +7°C° 0.1 mm 5 m/s 730 mmHg 77%
08:00 +8°C° 1.2 mm 5 m/s 730 mmHg 78%
09:00 +8°C° 1.2 mm 5 m/s 730 mmHg 79%
10:00 +8°C° 1.2 mm 6 m/s 731 mmHg 80%
11:00 +9°C° 0.5 mm 6 m/s 731 mmHg 79%
12:00 +9°C° 0.5 mm 6 m/s 731 mmHg 77%
13:00 +10°C° 0.5 mm 6 m/s 731 mmHg 75%
14:00 +10°C° 0.5 mm 6 m/s 731 mmHg 76%
15:00 +10°C° 0.5 mm 5 m/s 732 mmHg 76%
16:00 +11°C° 0.5 mm 4 m/s 732 mmHg 77%
17:00 +11°C° 0.8 mm 4 m/s 733 mmHg 78%
18:00 +10°C° 0.8 mm 3 m/s 733 mmHg 79%
19:00 +10°C° 0.8 mm 3 m/s 734 mmHg 80%
20:00 +10°C° 0.1 mm 4 m/s 734 mmHg 78%
21:00 +10°C° 0.1 mm 4 m/s 735 mmHg 77%
22:00 +9°C° 0.1 mm 5 m/s 736 mmHg 75%
23:00 +10°C° 0 mm 4 m/s 736 mmHg 76%

28 Septembrie, Luni

Timp Temperatura Precipitaţii Vânt Presiune Umiditate
00:00 +10°C° 0 mm 3 m/s 736 mmHg 76%
01:00 +9°C° 0 mm 3 m/s 736 mmHg 76%
02:00 +9°C° 0 mm 3 m/s 736 mmHg 77%
03:00 +8°C° 0 mm 3 m/s 736 mmHg 78%
04:00 +8°C° 0 mm 3 m/s 736 mmHg 79%
05:00 +8°C° 0 mm 3 m/s 736 mmHg 78%
06:00 +8°C° 0 mm 3 m/s 737 mmHg 76%
07:00 +9°C° 0 mm 3 m/s 737 mmHg 75%
08:00 +10°C° 0 mm 3 m/s 737 mmHg 71%
09:00 +11°C° 0 mm 4 m/s 737 mmHg 67%
10:00 +13°C° 0 mm 4 m/s 738 mmHg 64%
11:00 +13°C° 0 mm 4 m/s 738 mmHg 64%
12:00 +13°C° 0 mm 3 m/s 737 mmHg 65%
13:00 +13°C° 0 mm 3 m/s 737 mmHg 65%
14:00 +13°C° 0 mm 3 m/s 737 mmHg 67%
15:00 +13°C° 0 mm 3 m/s 737 mmHg 68%
16:00 +13°C° 0 mm 3 m/s 737 mmHg 69%
17:00 +14°C° 0 mm 2 m/s 737 mmHg 75%
18:00 +13°C° 0 mm 1 m/s 738 mmHg 80%
19:00 +12°C° 0 mm 1 m/s 738 mmHg 85%
20:00 +12°C° 0 mm 1 m/s 738 mmHg 85%
21:00 +12°C° 0 mm 1 m/s 738 mmHg 85%
22:00 +11°C° 0 mm 1 m/s 738 mmHg 85%
23:00 +10°C° 0 mm 2 m/s 738 mmHg 87%

29 Septembrie, Marţi

Timp Temperatura Precipitaţii Vânt Presiune Umiditate
00:00 +9°C° 0 mm 2 m/s 738 mmHg 89%
01:00 +9°C° 0 mm 2 m/s 738 mmHg 90%
02:00 +9°C° 0 mm 2 m/s 738 mmHg 89%
03:00 +10°C° 0 mm 1 m/s 737 mmHg 89%
04:00 +9°C° 0 mm 1 m/s 737 mmHg 88%
05:00 +10°C° 0 mm 1 m/s 737 mmHg 86%
06:00 +10°C° 0 mm 1 m/s 737 mmHg 84%
07:00 +11°C° 0 mm 1 m/s 737 mmHg 82%
08:00 +12°C° 0 mm 2 m/s 737 mmHg 75%
09:00 +14°C° 0 mm 2 m/s 737 mmHg 68%
10:00 +16°C° 0 mm 2 m/s 737 mmHg 61%
11:00 +14°C° 0 mm 3 m/s 737 mmHg 63%
12:00 +14°C° 0 mm 3 m/s 737 mmHg 65%
13:00 +14°C° 0 mm 3 m/s 737 mmHg 67%
14:00 +13°C° 0.4 mm 3 m/s 737 mmHg 74%
15:00 +12°C° 0.4 mm 3 m/s 737 mmHg 81%
16:00 +11°C° 0.4 mm 3 m/s 737 mmHg 88%
17:00 +12°C° 0.4 mm 2 m/s 737 mmHg 90%
18:00 +12°C° 0.4 mm 2 m/s 737 mmHg 92%
19:00 +12°C° 0.4 mm 1 m/s 738 mmHg 93%
20:00 +12°C° 0.3 mm 2 m/s 738 mmHg 93%
21:00 +12°C° 0.3 mm 2 m/s 738 mmHg 93%
22:00 +12°C° 0.3 mm 2 m/s 738 mmHg 92%
23:00 +12°C° 0.1 mm 2 m/s 738 mmHg 93%

30 Septembrie, Miercuri

Timp Temperatura Precipitaţii Vânt Presiune Umiditate
00:00 +11°C° 0.1 mm 3 m/s 738 mmHg 94%
01:00 +10°C° 0.1 mm 3 m/s 738 mmHg 94%
02:00 +10°C° 0.1 mm 3 m/s 738 mmHg 94%
03:00 +10°C° 0.1 mm 3 m/s 738 mmHg 94%
04:00 +10°C° 0.1 mm 4 m/s 738 mmHg 94%
05:00 +10°C° 0.1 mm 4 m/s 738 mmHg 93%
06:00 +10°C° 0.1 mm 4 m/s 738 mmHg 92%
07:00 +10°C° 0.1 mm 4 m/s 738 mmHg 90%
08:00 +10°C° 0 mm 5 m/s 738 mmHg 86%
09:00 +11°C° 0 mm 6 m/s 738 mmHg 82%
10:00 +12°C° 0 mm 7 m/s 738 mmHg 77%
11:00 +12°C° 0 mm 7 m/s 737 mmHg 77%
12:00 +12°C° 0 mm 7 m/s 737 mmHg 76%
13:00 +12°C° 0 mm 8 m/s 737 mmHg 75%
14:00 +12°C° 0.1 mm 8 m/s 737 mmHg 76%
15:00 +12°C° 0.1 mm 7 m/s 736 mmHg 78%
16:00 +12°C° 0.1 mm 7 m/s 736 mmHg 79%
17:00 +12°C° 0.2 mm 7 m/s 736 mmHg 82%
18:00 +12°C° 0.2 mm 7 m/s 736 mmHg 85%
19:00 +12°C° 0.2 mm 7 m/s 736 mmHg 88%
20:00 +12°C° 0.5 mm 7 m/s 736 mmHg 89%
21:00 +12°C° 0.5 mm 7 m/s 736 mmHg 90%
22:00 +13°C° 0.5 mm 6 m/s 736 mmHg 91%
23:00 +13°C° 0.9 mm 6 m/s 736 mmHg 92%
Arată mai mult